Date String (YYYY-MM-DD hh:mm:ss) UTC,Instrument flags,Ambient pressure (hPa),Sample flow (lpm),Bypass flow (lpm),Sample temperature (°C),Ambient temperature (°C),ASC tube jacket temperature (°C),LED temperature (°C),Box temperature (°C),Sample RH (%),Span deviation,Mass concentration (μg/m³),Mass concentration (μg/m³),Mass concentration (μg/m³)
DateTimeUTC,F1_M11,P_M11,Q1_M11,Q2_M11,T1_M11,T2_M11,T3_M11,T4_M11,T5_M11,U1_M11,ZSPAN_M11,X2_M11,X0_M11,X1_M11
2023-02-07 05:00:00,,0826.8,5.02,0.00,22.1,20.9,00.0,30.8,23.9,11.5,0000.0,0003.23,0007.09,0002.66
2023-02-07 05:01:00,,0826.8,5.01,0.00,22.1,20.9,00.0,30.8,23.9,11.5,0000.0,0003.29,0007.22,0002.72
2023-02-07 05:02:00,,0826.9,4.98,0.00,22.1,20.9,00.0,30.8,23.9,11.5,0000.0,0003.23,0006.99,0002.66
2023-02-07 05:03:00,,0826.9,4.98,0.00,22.1,20.9,00.0,30.8,23.9,11.5,0000.0,0003.23,0006.92,0002.65
2023-02-07 05:04:00,,0826.9,5.06,0.00,22.1,20.9,00.0,30.9,23.9,11.6,0000.0,0003.28,0007.25,0002.72
2023-02-07 05:05:00,,0826.8,4.99,0.00,22.1,20.8,00.0,30.9,23.9,11.6,0000.0,0003.33,0008.12,0002.80
2023-02-07 05:06:00,,0826.8,5.04,0.00,22.1,20.8,00.0,30.9,23.9,11.5,0000.0,0003.29,0008.15,0002.73
2023-02-07 05:07:00,,0826.9,4.99,0.00,22.1,20.8,00.0,30.9,23.9,11.6,0000.0,0003.19,0008.36,0002.59
2023-02-07 05:08:00,,0827.0,4.99,0.00,22.1,20.7,00.0,30.9,23.9,11.6,0000.0,0003.14,0008.79,0002.52
2023-02-07 05:09:00,,0827.0,5.04,0.00,22.1,20.7,00.0,30.9,23.9,11.7,0000.0,0003.10,0007.78,0002.49
2023-02-07 05:10:00,,0827.0,5.01,0.00,22.1,20.7,00.0,30.9,23.8,12.1,0000.0,0003.11,0008.51,0002.52
2023-02-07 05:11:00,,0826.9,4.99,0.00,22.0,20.7,00.0,30.9,23.8,12.3,0000.0,0003.15,0009.42,0002.59
2023-02-07 05:12:00,,0826.9,4.98,0.00,22.0,20.6,00.0,30.9,23.8,12.3,0000.0,0003.23,0009.59,0002.68
2023-02-07 05:13:00,,0826.9,5.01,0.00,22.0,20.6,00.0,30.9,23.8,12.0,0000.0,0003.27,0009.74,0002.71
2023-02-07 05:14:00,,0826.8,4.98,0.00,22.0,20.6,00.0,30.9,23.8,12.2,0000.0,0003.29,0009.87,0002.73
2023-02-07 05:15:00,,0827.1,5.03,0.00,22.0,20.6,00.0,30.9,23.8,12.0,0000.0,0003.30,0009.64,0002.75
2023-02-07 05:16:00,,0826.8,4.97,0.00,22.0,20.6,00.0,30.9,23.8,12.1,0000.0,0003.34,0009.04,0002.81
2023-02-07 05:17:00,,0826.9,4.99,0.00,22.0,20.6,00.0,30.9,23.8,12.0,0000.0,0003.41,0009.11,0002.90
2023-02-07 05:18:00,,0827.0,5.09,0.00,22.0,20.6,00.0,30.9,23.8,11.7,0000.0,0003.45,0008.79,0002.93
2023-02-07 05:19:00,,0827.0,4.99,0.00,22.0,20.6,00.0,30.9,23.8,11.7,0000.0,0003.46,0008.43,0002.97
2023-02-07 05:20:00,,0827.1,4.98,0.00,22.0,20.5,00.0,30.9,23.8,11.6,0000.0,0003.49,0008.45,0002.98
2023-02-07 05:21:00,,0827.1,5.02,0.00,22.0,20.5,00.0,30.9,23.7,11.6,0000.0,0003.51,0008.04,0002.96
2023-02-07 05:22:00,,0827.0,5.01,0.00,22.0,20.5,00.0,30.9,23.7,11.7,0000.0,0003.50,0007.10,0002.91
2023-02-07 05:23:00,,0827.0,5.00,0.00,22.0,20.5,00.0,30.8,23.7,11.7,0000.0,0003.46,0007.51,0002.85
2023-02-07 05:24:00,,0826.9,4.98,0.00,21.9,20.5,00.0,30.8,23.7,11.7,0000.0,0003.44,0007.58,0002.84
2023-02-07 05:25:00,,0827.0,5.00,0.00,21.9,20.4,00.0,30.8,23.6,12.0,0000.0,0003.44,0007.49,0002.86
2023-02-07 05:26:00,,0827.1,5.00,0.00,21.9,20.4,00.0,30.8,23.7,12.0,0000.0,0003.46,0007.65,0002.87
2023-02-07 05:27:00,,0826.8,5.02,0.00,22.0,21.0,00.0,30.8,23.8,12.0,0000.0,0003.44,0007.70,0002.84
2023-02-07 05:28:00,,0827.0,4.98,0.00,22.1,22.0,00.0,30.8,24.0,11.8,0000.0,0003.40,0007.77,0002.78
2023-02-07 05:29:00,,0827.2,4.98,0.00,22.2,22.6,00.0,30.8,24.2,11.7,0000.0,0003.40,0007.81,0002.77
2023-02-07 05:30:00,,0827.0,5.04,0.00,22.2,22.3,00.0,30.9,24.2,11.5,0000.0,0003.39,0007.62,0002.77
2023-02-07 05:31:00,,0827.2,4.97,0.00,22.2,22.0,00.0,30.9,24.2,11.5,0000.0,0003.36,0007.58,0002.75
2023-02-07 05:32:00,,0827.1,5.04,0.00,22.3,21.6,00.0,30.9,24.1,11.5,0000.0,0003.32,0007.35,0002.72
2023-02-07 05:33:00,,0826.8,4.99,0.00,22.3,21.4,00.0,31.0,24.1,11.5,0000.0,0003.28,0007.23,0002.68
2023-02-07 05:34:00,,0826.9,4.98,0.00,22.3,21.3,00.0,31.0,24.1,11.3,0000.0,0003.25,0006.29,0002.64
2023-02-07 05:35:00,,0826.9,5.01,0.00,22.3,21.1,00.0,31.0,24.1,10.5,0000.0,0003.18,0005.85,0002.56
2023-02-07 05:36:00,,0826.9,5.02,0.00,22.2,21.0,00.0,31.0,24.1,10.3,0000.0,0003.14,0005.84,0002.45
2023-02-07 05:37:00,,0826.9,4.97,0.00,22.2,21.0,00.0,31.0,24.0,10.6,0000.0,0003.02,0005.62,0002.32
2023-02-07 05:38:00,,0826.9,5.02,0.00,22.2,20.9,00.0,31.0,24.0,11.1,0000.0,0002.91,0005.37,0002.23
2023-02-07 05:39:00,,0827.0,5.01,0.00,22.2,20.8,00.0,31.0,24.0,11.4,0000.0,0002.80,0004.98,0002.18
2023-02-07 05:40:00,,0827.0,5.01,0.00,22.2,20.8,00.0,31.0,24.0,11.6,0000.0,0002.75,0004.72,0002.15
2023-02-07 05:41:00,,0827.0,5.02,0.00,22.2,20.8,00.0,31.0,24.0,11.6,0000.0,0002.72,0004.71,0002.14
2023-02-07 05:42:00,,0827.2,4.97,0.00,22.2,20.7,00.0,31.0,23.9,11.4,0000.0,0002.70,0004.68,0002.14
2023-02-07 05:43:00,,0827.0,5.02,0.00,22.2,20.7,00.0,31.0,23.9,11.4,0000.0,0002.69,0004.55,0002.13
2023-02-07 05:44:00,,0827.0,5.01,0.00,22.2,20.7,00.0,31.0,23.9,11.4,0000.0,0002.71,0004.85,0002.14
2023-02-07 05:45:00,,0827.2,5.00,0.00,22.2,20.6,00.0,31.0,23.9,11.3,0000.0,0002.71,0005.05,0002.13
2023-02-07 05:46:00,,0827.3,5.00,0.00,22.1,20.6,00.0,31.0,23.9,11.3,0000.0,0002.82,0005.41,0002.17
2023-02-07 05:47:00,,0827.1,5.02,0.00,22.1,20.6,00.0,31.0,23.9,11.4,0000.0,0002.89,0005.50,0002.22
2023-02-07 05:48:00,,0827.2,4.97,0.00,22.1,20.6,00.0,31.0,23.9,11.5,0000.0,0002.94,0005.39,0002.28
2023-02-07 05:49:00,,0827.2,5.01,0.00,22.1,20.6,00.0,31.0,23.9,11.7,0000.0,0002.98,0005.59,0002.35
2023-02-07 05:50:00,,0827.2,5.03,0.00,22.1,20.6,00.0,31.0,23.9,11.9,0000.0,0003.03,0006.07,0002.39
2023-02-07 05:51:00,,0827.2,4.94,0.00,22.1,20.6,00.0,31.0,23.9,12.1,0000.0,0003.07,0006.62,0002.42
2023-02-07 05:52:00,,0827.2,5.05,0.00,22.1,20.6,00.0,31.0,23.9,12.3,0000.0,0003.17,0007.43,0002.45
2023-02-07 05:53:00,,0827.2,5.01,0.00,22.1,20.6,00.0,31.0,23.8,12.4,0000.0,0003.23,0007.73,0002.50
2023-02-07 05:54:00,,0827.2,4.98,0.00,22.1,20.6,00.0,31.0,23.8,12.4,0000.0,0003.28,0008.40,0002.56
2023-02-07 05:55:00,,0827.2,5.01,0.00,22.0,20.5,00.0,31.0,23.8,12.3,0000.0,0003.33,0008.61,0002.61
2023-02-07 05:56:00,,0827.2,5.03,0.00,22.0,20.5,00.0,30.9,23.8,12.4,0000.0,0003.35,0008.59,0002.65
2023-02-07 05:57:00,,0827.2,4.97,0.00,22.1,21.2,00.0,30.9,24.0,12.3,0000.0,0003.46,0009.17,0002.74
2023-02-07 05:58:00,,0827.2,5.02,0.00,22.2,22.3,00.0,30.9,24.2,12.1,0000.0,0003.59,0010.11,0002.84
2023-02-07 05:59:00,,0827.2,5.04,0.00,22.3,22.8,00.0,30.9,24.4,11.9,0000.0,0003.67,0010.70,0002.93
